DATE/TIME(UTC),Outside Humidity (),Lat. , Long.,Direction / Angle (),Direction / Angle (),Speed (ground - true North),Speed (Apparent),Barometric Pressure (),Outside Temperature ()
Jul-25-2019 00:00:00,,34.716719999999995,-121.5470733,337.6898652942046,4.549284893338736,12.887688984881208,10.516198704103672,1009,15.860000000000014
Jul-25-2019 00:00:15,,34.716731599999996,-121.5471316,333.793752287315,8.342265497104787,13.198704103671707,10.088552915766739,1009,15.860000000000014
Jul-25-2019 00:00:30,,34.7167433,-121.54719,332.9916113741319,5.506124411207212,12.09071274298056,10.632829373650107,1009,15.840000000000032
Jul-25-2019 00:00:45,,34.71675,-121.54724499999999,336.4923835023812,358.6715797518954,12.285097192224622,8.86393088552916,1009,15.830000000000041
Jul-25-2019 00:01:00,,34.7167566,-121.5473066,334.79069885084266,357.45690922621804,12.285097192224622,9.194384449244062,1009,15.880000000000052
Jul-25-2019 00:01:15,,34.7167616,-121.54736829999999,338.58940903256,5.90146528984748,13.490280777537798,13.120950323974082,1009,15.900000000000034
Jul-25-2019 00:01:30,,34.716755,-121.54742999999999,333.793752287315,2.245994556912827,14.287257019438444,12.265658747300217,1009,15.860000000000014
Jul-25-2019 00:01:45,,34.716744999999996,-121.5474866,335.7933749923216,7.098947081670901,13.295896328293736,11.935205183585314,1009,15.82000000000005
Jul-25-2019 00:02:00,,34.71673,-121.5475366,331.49046195088914,3.2658594322456924,13.198704103671707,10.76889848812095,1009,15.830000000000041
Jul-25-2019 00:02:15,,34.7167216,-121.54759159999999,337.6898652942046,5.454558209645438,12.693304535637148,9.05831533477322,1009,15.850000000000023
Jul-25-2019 00:02:30,,34.7167066,-121.5476266,338.29147097909197,3.6268228431781115,12.887688984881208,11.779697624190065,1009,15.860000000000014
Jul-25-2019 00:02:45,,34.71671,-121.5476466,338.7899442608558,356.8896810090385,12.887688984881208,9.58315334773218,1009,15.850000000000023
Jul-25-2019 00:03:00,,34.7166816,-121.5476716,338.7899442608558,350.9022720499214,13.393088552915769,8.514038876889849,1009,15.82000000000005
Jul-25-2019 00:03:15,,34.7166516,-121.5476916,339.09361189227513,355.8067907762412,13.198704103671707,8.70842332613391,1009,15.860000000000014
Jul-25-2019 00:03:30,,34.7166383,-121.5477183,341.488575475922,3.7356848242529677,13.490280777537798,11.293736501079914,1009,15.870000000000005
Jul-25-2019 00:03:45,,34.71665,-121.54773499999999,337.3919272407366,0.641712730546522,12.09071274298056,8.80561555075594,1009,15.850000000000023
Jul-25-2019 00:04:00,,34.71664,-121.54773499999999,345.39041806076284,347.74527459875054,12.79049676025918,10.107991360691145,1009,15.830000000000041
Jul-25-2019 00:04:15,,34.7166233,-121.54777159999999,342.69178684569675,348.1692633671474,12.693304535637148,7.658747300215982,1009,15.870000000000005
Jul-25-2019 00:04:30,,34.716641599999996,-121.5478516,344.29033909411174,359.53101644459156,13.587473002159827,11.332613390928726,1009,15.890000000000043
Jul-25-2019 00:04:45,,34.7167016,-121.5479616,339.89002322750696,0.3323155211758775,13.295896328293736,10.457883369330453,1009,15.880000000000052
Jul-25-2019 00:05:00,,34.716764999999995,-121.548085,332.8942085489596,2.566850922186088,12.285097192224622,11.332613390928726,1009,15.860000000000014
Jul-25-2019 00:05:15,,34.71682,-121.5481916,335.094366482262,359.61123053590995,13.684665226781858,9.6414686825054,1009,15.82000000000005
Jul-25-2019 00:05:30,,34.716866599999996,-121.5482933,332.09206763577646,357.8694388387122,12.887688984881208,10.321814254859612,1009,15.840000000000032
Jul-25-2019 00:05:45,,34.7169033,-121.548385,337.288794837613,353.2800468997143,12.693304535637148,9.894168466522679,1009,15.860000000000014
Jul-25-2019 00:06:00,,34.7169366,-121.54844999999999,344.89194477899906,2.2689128687180604,13.198704103671707,11.293736501079914,1009,15.850000000000023
Jul-25-2019 00:06:15,,34.7169533,-121.5485133,346.192558973946,10.106975506107721,13.198704103671707,11.60475161987041,1009,15.870000000000005
Jul-25-2019 00:06:30,,34.7169716,-121.54858329999999,347.1895055374737,6.107730096094575,12.498920086393088,12.110151187904968,1009,15.870000000000005
Jul-25-2019 00:06:45,,34.7169983,-121.54865,338.0909357507962,2.6757129032609446,12.693304535637148,11.079913606911447,1009,15.880000000000052
Jul-25-2019 00:07:00,,34.7170183,-121.54871999999999,337.3919272407366,5.4316398978402045,11.585313174946004,10.613390928725703,1009,15.850000000000023
Jul-25-2019 00:07:15,,34.7170116,-121.54876999999999,336.29184827408545,4.090918657234078,13.295896328293736,11.546436285097192,1009,15.830000000000041
Jul-25-2019 00:07:30,,34.7170166,-121.54881329999999,336.29184827408545,2.9965692685342056,12.693304535637148,10.749460043196546,1009,15.840000000000032
Jul-25-2019 00:07:45,,34.7170583,-121.5488783,332.8942085489596,4.108107391088002,13.781857451403887,12.887688984881208,1009,15.82000000000005
Jul-25-2019 00:08:00,,34.717085,-121.5489466,329.4908392458825,1.501149423242757,13.490280777537798,10.76889848812095,1009,15.850000000000023
Jul-25-2019 00:08:15,,34.717118299999996,-121.54902829999999,338.49200620738776,357.5142050057311,13.490280777537798,10.185745140388768,1009,15.890000000000043
Jul-25-2019 00:08:30,,34.717156599999996,-121.5490966,340.6921641406901,352.6841707927782,12.187904967602593,8.74730021598272,1009,15.880000000000052
Jul-25-2019 00:08:45,,34.7172033,-121.54915659999999,344.9893476041713,355.4744752550654,11.8963282937365,9.622030237580994,1009,15.860000000000014
Jul-25-2019 00:09:00,,34.717234999999995,-121.54923,345.7914885173544,2.641335435553095,12.98488120950324,11.721382289416848,1009,15.82000000000005
Jul-25-2019 00:09:15,,34.7172866,-121.54931499999999,337.0939891872685,0.4239887683968092,12.887688984881208,9.991360691144708,1009,15.840000000000032
Jul-25-2019 00:09:30,,34.7173016,-121.54938,330.6940506156572,357.8808979946148,12.59611231101512,10.185745140388768,1009,15.860000000000014
Jul-25-2019 00:09:45,,34.717318299999995,-121.54943329999999,335.094366482262,2.245994556912827,12.79049676025918,9.272138228941685,1009,15.850000000000023
Jul-25-2019 00:10:00,,34.7173333,-121.54947999999999,330.2929801590657,2.2803720246206765,11.8963282937365,7.736501079913608,1009,15.830000000000041
Jul-25-2019 00:10:15,,34.717345,-121.5495316,336.89345395897277,351.6929538072019,12.79049676025918,8.572354211663066,1009,15.860000000000014
Jul-25-2019 00:10:30,,34.717375,-121.5495966,340.29109368409854,0.05729577951308232,12.79049676025918,8.80561555075594,1009,15.850000000000023
Jul-25-2019 00:10:45,,34.717426599999996,-121.54969829999999,336.38925109925765,350.5756861066968,12.98488120950324,8.669546436285097,1009,15.840000000000032
Jul-25-2019 00:11:00,,34.7174966,-121.5498233,340.4916289123944,356.05889220609885,12.09071274298056,9.213822894168468,1009,15.830000000000041
Jul-25-2019 00:11:15,,34.717569999999995,-121.549945,334.79069885084266,356.3797485713721,11.993520518358531,9.116630669546439,1009,15.810000000000002
Jul-25-2019 00:11:30,,34.7176383,-121.5500483,333.59321705901925,353.6524694665494,13.781857451403887,10.185745140388768,1009,15.830000000000041
Jul-25-2019 00:11:45,,34.7176933,-121.55013659999999,333.28954942759987,1.707414229489853,12.498920086393088,10.749460043196546,1009,15.850000000000023
Jul-25-2019 00:12:00,,34.717749999999995,-121.55023159999999,327.3938137157037,355.41717947555225,12.09071274298056,9.991360691144708,1009,15.840000000000032
Jul-25-2019 00:12:15,,34.717815,-121.55032999999999,333.49008465589566,355.28539918267217,12.382289416846653,10.224622030237581,1009,15.830000000000041
Jul-25-2019 00:12:30,,34.717896599999996,-121.55045,331.2899267225933,354.5462836269535,12.187904967602593,10.146868250539956,1009,15.79000000000002
Jul-25-2019 00:12:45,,34.71799,-121.5505783,339.89002322750696,348.1234267435369,13.781857451403887,11.546436285097192,1009,15.810000000000002
Jul-25-2019 00:13:00,,34.718096599999996,-121.5507416,334.8938312539662,358.0184078654462,11.079913606911447,9.777537796976242,1009,15.870000000000005
Jul-25-2019 00:13:15,,34.718193299999996,-121.5508816,331.2899267225933,359.35912910605236,12.498920086393088,9.466522678185745,1009,15.810000000000002
Jul-25-2019 00:13:30,,34.7182816,-121.5510166,332.49313809236804,352.1627791992091,12.887688984881208,10.321814254859612,1009,15.830000000000041
Jul-25-2019 00:13:45,,34.718375,-121.551165,333.793752287315,352.8388693974635,12.98488120950324,9.971922246220302,1009,15.810000000000002
Jul-25-2019 00:14:00,,34.7184666,-121.5512916,337.6898652942046,356.87822185313587,13.198704103671707,10.749460043196546,1009,15.840000000000032
Jul-25-2019 00:14:15,,34.71855,-121.55141499999999,335.2891721326065,354.42023291202463,13.995680345572353,10.205183585313176,1009,15.840000000000032
Jul-25-2019 00:14:30,,34.718618299999996,-121.5515183,335.7933749923216,352.4836355644825,13.393088552915769,10.904967602591794,1009,15.870000000000005
Jul-25-2019 00:14:45,,34.7186866,-121.55162,337.19139201244076,354.15667232626447,13.898488120950324,10.516198704103672,1009,15.840000000000032
Jul-25-2019 00:15:00,,34.718753299999996,-121.5517366,328.9923659641187,353.9103004743582,12.285097192224622,8.339092872570195,1009,15.860000000000014
Jul-25-2019 00:15:15,,34.71882,-121.5518366,334.0916903407831,356.0417034722449,12.693304535637148,8.591792656587474,1009,15.850000000000023
Jul-25-2019 00:15:30,,34.7188966,-121.55195499999999,337.6898652942046,359.3190220603932,13.08207343412527,8.203023758099352,1009,15.840000000000032
Jul-25-2019 00:15:45,,34.7189816,-121.552105,331.988935232653,355.19372593545125,12.187904967602593,8.533477321814255,1009,15.860000000000014
Jul-25-2019 00:16:00,,34.719061599999996,-121.5522233,338.58940903256,353.6410103106467,12.79049676025918,10.885529157667388,1009,15.800000000000011
Jul-25-2019 00:16:15,,34.7191366,-121.5523116,335.5928397640258,352.97064969034363,13.198704103671707,9.09719222462203,1009,15.840000000000032
Jul-25-2019 00:16:30,,34.7191933,-121.5524033,334.3896283942511,351.51533689071135,13.198704103671707,8.591792656587474,1009,15.860000000000014
Jul-25-2019 00:16:45,,34.719265,-121.5525133,332.49313809236804,2.188698777399745,14.092872570194382,10.846652267818575,1009,15.880000000000052
Jul-25-2019 00:17:00,,34.719333299999995,-121.5526216,333.08901419930413,0.5213915935690492,14.59827213822894,12.460043196544277,1009,15.960000000000036
Jul-25-2019 00:17:15,,34.7193983,-121.5527233,333.59321705901925,1.306343772898277,13.898488120950324,12.071274298056155,1009,15.930000000000007
Jul-25-2019 00:17:30,,34.719454999999996,-121.552815,336.4923835023812,357.6860923442703,14.287257019438444,10.866090712742979,1009,15.860000000000014
Jul-25-2019 00:17:45,,34.719505,-121.5528933,333.59321705901925,358.48823325745343,12.887688984881208,9.660907127429804,1009,15.850000000000023
Jul-25-2019 00:18:00,,34.7195633,-121.55297829999999,332.49313809236804,356.2422387005406,13.295896328293736,9.213822894168468,1009,15.890000000000043
Jul-25-2019 00:18:15,,34.719621599999996,-121.553045,337.59246246903234,0.9912169855763242,13.393088552915769,11.838012958963283,1009,15.910000000000025
Jul-25-2019 00:18:30,,34.719693299999996,-121.55313659999999,337.19139201244076,359.82322492010826,12.59611231101512,9.73866090712743,1008,15.870000000000005
Jul-25-2019 00:18:45,,34.719758299999995,-121.55324159999999,334.5901636225469,359.4851798209811,12.98488120950324,9.622030237580994,1008,15.850000000000023
Jul-25-2019 00:19:00,,34.7198333,-121.5533533,340.1936908589263,1.8563832562238671,13.08207343412527,10.341252699784018,1009,15.840000000000032
Jul-25-2019 00:19:15,,34.7199066,-121.55344,336.990856784145,0.2864788975654116,12.285097192224622,9.485961123110151,1009,15.840000000000032
Jul-25-2019 00:19:30,,34.719956599999996,-121.553525,339.4889527709154,1.455312799632291,13.198704103671707,11.02159827213823,1009,15.840000000000032
Jul-25-2019 00:19:45,,34.7199866,-121.55360499999999,332.09206763577646,1.6959550735872368,12.498920086393088,10.146868250539956,1009,15.810000000000002
Jul-25-2019 00:20:00,,34.7200316,-121.55368999999999,334.9912340791384,0.3781521447863433,13.393088552915769,11.002159827213823,1009,15.850000000000023
Jul-25-2019 00:20:15,,34.7200833,-121.5537583,333.08901419930413,355.19372593545125,12.887688984881208,9.427645788336934,1009,15.880000000000052
Jul-25-2019 00:20:30,,34.7201483,-121.5538266,330.8888562660017,2.337667804133759,13.198704103671707,11.060475161987041,1009,15.850000000000023
Jul-25-2019 00:20:45,,34.720165,-121.55391499999999,331.6909971791849,358.0184078654462,13.587473002159827,10.904967602591794,1009,15.870000000000005
Jul-25-2019 00:21:00,,34.7202066,-121.55398659999999,333.19214660242767,3.1569974511708363,14.287257019438444,11.196544276457884,1009,15.850000000000023
Jul-25-2019 00:21:15,,34.720253299999996,-121.55407659999999,334.9912340791384,2.9163551772158907,13.198704103671707,10.030237580993521,1009,15.840000000000032
Jul-25-2019 00:21:30,,34.7203016,-121.5541516,333.69061988419145,357.4168021805588,13.587473002159827,9.6414686825054,1009,15.880000000000052
Jul-25-2019 00:21:45,,34.7203583,-121.55422499999999,340.58903173756653,1.283425461093044,14.190064794816413,11.390928725701944,1008,15.880000000000052
Jul-25-2019 00:22:00,,34.7204133,-121.554295,332.79107614583603,0.2119943841984046,12.79049676025918,9.719222462203023,1008,15.850000000000023
Jul-25-2019 00:22:15,,34.7204666,-121.5543833,338.69254143568355,358.1043515347158,13.490280777537798,9.73866090712743,1009,15.870000000000005
Jul-25-2019 00:22:30,,34.7205316,-121.55448829999999,342.8923220739925,359.9779235247936,13.587473002159827,10.710583153347732,1009,15.840000000000032
Jul-25-2019 00:22:45,,34.7206016,-121.55457,336.990856784145,1.7876283208081687,12.98488120950324,10.632829373650107,1009,15.830000000000041
Jul-25-2019 00:23:00,,34.7206433,-121.55463329999999,335.094366482262,2.538203032429547,13.08207343412527,12.382289416846653,1009,15.79000000000002
Jul-25-2019 00:23:15,,34.720678299999996,-121.5546916,332.69367332066383,2.6814424812122524,13.393088552915769,9.05831533477322,1009,15.840000000000032
Jul-25-2019 00:23:30,,34.72072,-121.55476329999999,327.6917517691718,357.5371233175363,13.08207343412527,9.369330453563714,1009,15.840000000000032
Jul-25-2019 00:23:45,,34.7207533,-121.5548333,331.988935232653,357.1016753932369,13.198704103671707,10.263498920086393,1009,15.850000000000023
Jul-25-2019 00:24:00,,34.720794999999995,-121.5549016,336.18871587096186,351.81900452213074,13.781857451403887,9.622030237580994,1009,15.870000000000005
Jul-25-2019 00:24:15,,34.7208416,-121.55497659999999,332.79107614583603,354.4947174253917,12.59611231101512,10.341252699784018,1008,15.850000000000023
Jul-25-2019 00:24:30,,34.7208916,-121.5550516,335.7933749923216,0.34377467707849396,12.98488120950324,8.533477321814255,1009,15.840000000000032
Jul-25-2019 00:24:45,,34.720968299999996,-121.555145,333.28954942759987,356.1849429210276,13.490280777537798,10.185745140388768,1009,15.78000000000003
Jul-25-2019 00:25:00,,34.721055,-121.55525829999999,332.1894704609487,358.8835741360937,13.393088552915769,11.079913606911447,1009,15.800000000000011
Jul-25-2019 00:25:15,,34.72112,-121.5553516,332.9916113741319,1.2375888374825783,13.295896328293736,11.876889848812095,1008,15.860000000000014
Jul-25-2019 00:25:30,,34.7211783,-121.55542159999999,339.3915499457431,4.0622707674775365,13.08207343412527,11.37149028077754,1008,15.860000000000014
Jul-25-2019 00:25:45,,34.721238299999996,-121.5555016,334.5901636225469,5.397262430132355,12.382289416846653,13.295896328293736,1009,15.870000000000005
Jul-25-2019 00:26:00,,34.7212866,-121.5555933,328.8892335609952,6.382749837757371,12.79049676025918,9.58315334773218,1008,15.830000000000041
Jul-25-2019 00:26:15,,34.721328299999996,-121.5556816,337.7929976973282,0.6531718864491385,13.295896328293736,10.516198704103672,1008,15.870000000000005
Jul-25-2019 00:26:30,,34.7213633,-121.5557566,333.28954942759987,359.99511225864757,11.993520518358531,8.222462203023758,1008,15.830000000000041
Jul-25-2019 00:26:45,,34.721405,-121.55583,337.993532925624,354.7754667450057,13.198704103671707,10.321814254859612,1009,15.850000000000023
Jul-25-2019 00:27:00,,34.72146,-121.55592159999999,337.7929976973282,351.2575058829025,12.59611231101512,9.816414686825054,1008,15.82000000000005
Jul-25-2019 00:27:15,,34.7215266,-121.55602999999999,335.48970736090223,348.91410850081746,13.08207343412527,9.174946004319654,1008,15.82000000000005
Jul-25-2019 00:27:30,,34.7215833,-121.5561666,332.79107614583603,359.92062774528057,13.198704103671707,10.535637149028076,1008,15.850000000000023
Jul-25-2019 00:27:45,,34.721638299999995,-121.5562466,337.4893300659088,0.19480565034447994,12.887688984881208,10.632829373650107,1008,15.810000000000002
Jul-25-2019 00:28:00,,34.7216883,-121.55631659999999,335.8907778174938,3.7643327140095093,12.59611231101512,8.241900647948166,1008,15.830000000000041
Jul-25-2019 00:28:15,,34.721746599999996,-121.55639,332.69367332066383,356.2708865902972,13.198704103671707,7.697624190064795,1009,15.850000000000023
Jul-25-2019 00:28:30,,34.721798299999996,-121.55646499999999,335.48970736090223,355.22237382520785,13.295896328293736,9.44708423326134,1008,15.840000000000032
Jul-25-2019 00:28:45,,34.721863299999995,-121.55655499999999,334.9912340791384,354.2025089498749,14.481641468682506,11.002159827213823,1008,15.830000000000041
Jul-25-2019 00:29:00,,34.7219233,-121.5566283,338.69254143568355,357.680362766319,14.384449244060475,11.118790496760258,1008,15.880000000000052
Jul-25-2019 00:29:15,,34.721971599999996,-121.55672159999999,336.0913130457896,3.7757918699121253,13.295896328293736,10.730021598272138,1008,15.840000000000032
Jul-25-2019 00:29:30,,34.722016599999996,-121.5568083,339.68948799921117,6.079082206338034,13.198704103671707,11.993520518358531,1009,15.860000000000014
Jul-25-2019 00:29:45,,34.7220383,-121.5568916,336.58978632755344,4.938896194027696,13.490280777537798,12.79049676025918,1009,15.840000000000032
Jul-25-2019 00:30:00,,34.7220666,-121.5569716,336.38925109925765,3.5580679077624127,14.287257019438444,12.79049676025918,1008,15.840000000000032
Jul-25-2019 00:30:15,,34.722114999999995,-121.55705329999999,339.29414712057087,0.09167324722093173,12.887688984881208,9.194384449244062,1008,15.860000000000014
Jul-25-2019 00:30:30,,34.7221833,-121.55713829999999,344.29033909411174,2.761656572530568,12.98488120950324,11.95464362850972,1008,15.880000000000052
Jul-25-2019 00:30:45,,34.7222333,-121.55722999999999,343.6887334092243,1.082890232797256,12.498920086393088,9.952483801295896,1008,15.860000000000014
Jul-25-2019 00:31:00,,34.7222633,-121.55731329999999,346.5936294305376,4.96181450583293,11.993520518358531,11.235421166306697,1008,15.800000000000011
Jul-25-2019 00:31:15,,34.7223016,-121.55739159999999,340.99010219415817,3.804439759668666,13.295896328293736,12.421166306695465,1008,15.800000000000011
Jul-25-2019 00:31:30,,34.7223366,-121.5574633,339.29414712057087,2.7043607930174858,13.898488120950324,13.043196544276457,1008,15.800000000000011
Jul-25-2019 00:31:45,,34.7223666,-121.5575566,346.192558973946,11.430508012859924,12.98488120950324,12.110151187904968,1009,15.82000000000005
Jul-25-2019 00:32:00,,34.722384999999996,-121.5576433,344.3934714972353,5.907194867798789,12.693304535637148,11.682505399568033,1009,15.810000000000002
Jul-25-2019 00:32:15,,34.7224216,-121.5577433,345.49355046388644,7.786496435827887,14.287257019438444,14.695464362850972,1009,15.79000000000002
Jul-25-2019 00:32:30,,34.7224583,-121.55784329999999,345.09248000729485,6.497341396783535,14.59827213822894,11.449244060475161,1008,15.800000000000011
Jul-25-2019 00:32:45,,34.7225016,-121.55793,340.6921641406901,4.428963756361264,13.490280777537798,10.496760259179267,1008,15.860000000000014
Jul-25-2019 00:33:00,,34.722558299999996,-121.55803829999999,338.89307666397934,351.0913481223145,12.693304535637148,9.291576673866091,1008,15.850000000000023
Jul-25-2019 00:33:15,,34.7226133,-121.55811829999999,339.4889527709154,357.9553825079819,11.779697624190065,8.514038876889849,1008,15.860000000000014
Jul-25-2019 00:33:30,,34.722648299999996,-121.558195,344.3934714972353,5.712389217454308,13.781857451403887,12.63498920086393,1008,15.880000000000052
Jul-25-2019 00:33:45,,34.722706599999995,-121.55825999999999,345.1898828324671,2.0110818609091896,14.092872570194382,11.02159827213823,1008,15.840000000000032
Jul-25-2019 00:34:00,,34.7227616,-121.55834159999999,347.6937083971888,4.990462395589471,13.08207343412527,12.323974082073434,1008,15.840000000000032
Jul-25-2019 00:34:15,,34.72282,-121.558455,343.3907953557563,1.598552248414997,13.684665226781858,11.526997840172786,1008,15.870000000000005
Jul-25-2019 00:34:30,,34.722893299999996,-121.55857329999999,343.88926863752016,0.32658594322456924,13.684665226781858,11.293736501079914,1008,15.870000000000005
Jul-25-2019 00:34:45,,34.7229733,-121.5586783,345.7914885173544,2.9793805346802813,14.987041036717065,12.479481641468682,1008,15.840000000000032
Jul-25-2019 00:35:00,,34.723054999999995,-121.55879329999999,339.99315563063055,4.870141258611998,14.092872570194382,12.771058315334773,1008,15.82000000000005
Jul-25-2019 00:35:15,,34.723138299999995,-121.55892659999999,333.69061988419145,2.274642446669368,13.393088552915769,12.343412526997842,1008,15.830000000000041
Jul-25-2019 00:35:30,,34.72322,-121.55905,339.7926204023347,1.3464508185574346,13.684665226781858,11.468682505399569,1008,15.810000000000002
Jul-25-2019 00:35:45,,34.72331,-121.5591716,345.7914885173544,0.13178029288008933,14.384449244060475,11.293736501079914,1008,15.860000000000014
Jul-25-2019 00:36:00,,34.723405,-121.55929499999999,340.89269936898586,359.01535442897386,13.08207343412527,9.855291576673865,1008,15.810000000000002
Jul-25-2019 00:36:15,,34.7234966,-121.5594216,339.99315563063055,3.7070369344964265,14.092872570194382,13.548596112311015,1008,15.79000000000002
Jul-25-2019 00:36:30,,34.7236116,-121.55955,343.88926863752016,3.701307356545118,14.481641468682506,14.384449244060475,1008,15.800000000000011
Jul-25-2019 00:36:45,,34.7237016,-121.55968999999999,347.8885140475333,3.202834074781302,14.987041036717065,12.362850971922246,1008,15.830000000000041
Jul-25-2019 00:37:00,,34.723805,-121.5598416,345.8888913425267,1.4725015334862157,14.889848812095034,14.267818574514038,1008,15.870000000000005
Jul-25-2019 00:37:15,,34.7239133,-121.55998659999999,344.0898038658159,7.775037279925272,13.490280777537798,14.07343412526998,1008,15.830000000000041
Jul-25-2019 00:37:30,,34.724005,-121.560125,348.39271690724837,9.688716315662221,14.384449244060475,14.889848812095034,1008,15.850000000000023
Jul-25-2019 00:37:45,,34.724103299999996,-121.56026159999999,346.192558973946,2.2803720246206765,15.084233261339092,14.812095032397409,1008,15.840000000000032
Jul-25-2019 00:38:00,,34.724219999999995,-121.56040329999999,347.39004076576947,6.107730096094575,13.898488120950324,15.531317494600431,1008,15.830000000000041
Jul-25-2019 00:38:15,,34.724325,-121.56056,348.6906549607164,2.922084755167199,14.792656587473003,14.812095032397409,1008,15.830000000000041
Jul-25-2019 00:38:30,,34.724438299999996,-121.56070829999999,353.9905145656765,7.6890936106556484,14.792656587473003,16.600431965442766,1008,15.82000000000005
Jul-25-2019 00:38:45,,34.7245616,-121.560885,341.6891107042178,3.758603136058201,14.481641468682506,14.889848812095034,1008,15.82000000000005
Jul-25-2019 00:39:00,,34.724675,-121.561015,343.1902601274606,6.4515047731730695,14.190064794816413,12.615550755939525,1008,15.830000000000041
Jul-25-2019 00:39:15,,34.724795,-121.56116659999999,339.68948799921117,2.211617089204978,14.695464362850972,12.829373650107993,1008,15.840000000000032
Jul-25-2019 00:39:30,,34.72491,-121.5613166,342.0901811608093,4.463341224069113,14.287257019438444,13.101511879049676,1008,15.850000000000023